Regional Weather Roundup
Issued by NWS Grand Forks, ND

Home | Current Version | Previous Version | Graphics & Text | Print | Product List | Glossary On
Versions: 1 2 3 4 5 6 7 8 9 10 11 12 13 14 15 16 17 18 19 20 21 22 23 24 25 26 27 28 29 30 31 32 33 34 35 36 37 38 39 40 41 42 43 44 45 46 47 48 49 50
000
ASUS43 KFGF 032310
RWRFGF
PRAIRIE TO PINES  WEATHER ROUNDUP
NATIONAL WEATHER SERVICE EASTERN NORTH DAKOTA/GRAND FORKS ND
600 PM CDT SUN MAY 03 2015

 **SATELLITE DATA USED TO AUGMENT SKY COVER AT AUTOMATED STATIONS**
 *****  WEATHER ACROSS EASTERN NORTH DAKOTA  *****

CITY           SKY/WX    TMP DP  RH WIND       PRES   REMARKS
GRAND FORKS    MOSUNNY   68  26  20 NW14G22   29.92R
GRAND FRKS AFB SUNNY     67  25  20 N16G23    29.93R
GRAND FRKS NWS   N/A     66 N/A N/A NW7         N/A
DEVILS LAKE    MOSUNNY   63  25  23 NW16G22   29.95S
FARGO          SUNNY     71  23  16 NW13      29.92R
WAHPETON ARPT  PTCLDY    64  21  19 N13G22    29.94R
$$

 ***** WEATHER ACROSS CENTRAL AND WESTERN NORTH DAKOTA  *****

CITY           SKY/WX    TMP DP  RH WIND       PRES   REMARKS
BISMARCK       MOSUNNY   65  18  16 NW17G25   30.02R
MINOT          MOSUNNY   63  23  21 NW20      29.99S
JAMESTOWN      MOSUNNY   65  20  17 NW18      29.96R
MINOT AFB      SUNNY     64  26  23 NW17G23   29.99R
GARRISON         N/A     66  23  19 NW17G25   30.00S
WILLISTON      MOSUNNY   64  19  17 NW13      30.02S
DICKINSON      PTSUNNY   63  26  24 NW10G20   30.02S
HETTINGER      MOSUNNY   65  24  21 MISG      30.02S
$$

 *****  OTHER AIRPORT OBSERVATIONS IN OUR AREA  *****

CITY           SKY/WX    TMP DP  RH WIND       PRES   REMARKS
WALHALLA       FAIR      64  25  22 NW14G24   29.93R
GRAFTON AIRPOR FAIR      66  28  24 NW16      29.93R
VALLEY CITY AR FAIR      64  23  20 NW17G23   29.96R
CANDO          FAIR      64  25  22 NW18G24   29.96S
CAVALIER APRT  FAIR      64  27  24 NW15G21   29.92R
GWINNER        CLEAR     72  27  18 N12       29.96R
SHEYENNE NWR     N/A     69  22  17 NW8       29.95S
ROLLA          NOT AVBL
 ***** THE ABOVE OBSERVATIONS ARE NON NWS ARE NOT QUALITY
       CONTROLLED AND MAY MIS-REPORT RAIN FOR SNOW...
$$

  *****  WEATHER ACROSS NORTHERN MINNESOTA  *****

CITY           SKY/WX    TMP DP  RH WIND       PRES   REMARKS
FLAG ISLAND    SUNNY     57  37  47 NW25G32   29.87R
WARROAD        SUNNY     63  36  36 NW15G28   29.89R
ROSEAU         MOSUNNY   64  32  29 NW18      29.89S
HALLOCK        MOSUNNY   66  23  19 N15G22    29.91R
THF RVR FALLS  SUNNY     66  25  20 NW17G23   29.91R
BAUDETTE       SUNNY     63  31  30 NW16G28   29.87R
WASKISH        SUNNY     64  36  34 W7G17     29.88R
CROOKSTON      MOSUNNY   68  25  19 NW18      29.92R
$$
  *****  WEATHER ACROSS CENTRAL AND WEST MINNESOTA  *****

CITY           SKY/WX    TMP DP  RH WIND       PRES   REMARKS
FOSSTON        NOT AVBL
BEMIDJI        SUNNY     66  26  22 NW10      29.89S
PARK RAPIDS    MOSUNNY   67  25  20 NW14      29.90R
ELBOW LAKE     FAIR      64  26  23 N15       29.91F
WADENA         MOSUNNY   66  32  28 NW12      29.90R
DETROIT LAKES  MOSUNNY   66  23  19 N10G17    29.93S
MOORHEAD       SUNNY     70  21  16 NW15G22   29.92S
FERGUS FALLS   PTSUNNY   66  32  28 N12G22    29.93S
MORRIS MN      PTSUNNY   70  32  24 N17G25    29.91R
STAPLES        MOSUNNY   64  34  32 NW8       29.90R
$$
  *****  WEATHER ELSEWHERE ACROSS MINNESOTA  *****

CITY           SKY/WX    TMP DP  RH WIND       PRES   REMARKS
DULUTH         CLOUDY    63  47  55 W5        29.85F
INTRNTL FALLS  SUNNY     66  28  24 NW12G23   29.84S
ELY            CLOUDY    64  34  32 W7        29.83F
CLOQUET        CLOUDY    61  45  55 CALM      29.87F
WHEATON        PTSUNNY   63  28  27 NW15      29.97R
BRAINERD       PTSUNNY   69  35  28 N8        29.87F
HIBBING        PTSUNNY   64  31  28 NW17      29.86S
ALEXANDRIA     PTSUNNY   66  36  32 NW17G23   29.92R
SAINT CLOUD    CLOUDY    68  42  38 N10       29.86R
MINNEAPOLIS    CLOUDY    63  55  75 N18G31    29.81R
$$

  *****  WEATHER ACROSS SOUTH DAKOTA  *****

CITY           SKY/WX    TMP DP  RH WIND       PRES   REMARKS
SIOUX FALLS    CLOUDY    71  39  31 NE26G35   29.81F
BROOKINGS      PTSUNNY   68  36  30 N21       29.88F
WATERTOWN      MOSUNNY   68  37  32 NE17      29.93R
HURON          MOSUNNY   73  36  25 N21G30    29.90R
SISSETON         N/A     67  28  23 N16G24    29.95R
ABERDEEN       MOSUNNY   69  26  20 NE8       29.96S
MITCHELL       PTSUNNY   75  37  25 NE21G30   29.88R
PIERRE         SUNNY     72  31  22 NE17      29.95R
MOBRIDGE       PTSUNNY   68  25  19 N9        29.97S
RAPID CITY     MOSUNNY   65  36  34 NE15G23   30.00S
$$

  *****  SOME WEATHER IN NEARBY STATES *****

CITY           SKY/WX    TMP DP  RH WIND       PRES   REMARKS
GLASGOW MT     MOSUNNY   61  24  24 NW6       30.03F
GREAT FALLS MT SUNNY     64  24  21 E9        29.94F
CHEYENNE WY    CLOUDY    54  44  69 E9        30.05F
SCOTTSBLUFF NE CLOUDY    68  38  33 NE10      29.98R
OMAHA NE       PTSUNNY   79  60  52 SE12      29.72S
DES MOINES IA  CLOUDY    82  56  40 SW15G23   29.79R
DAVENPORT IA   MOSUNNY   80  54  40 SW15G21   29.85S
CHICAGO IL     LGT RAIN  76  47  35 SW10      29.91R
EAU CLAIRE WI  MOSUNNY   79  50  36 CALM      29.74S
LA CROSSE WI   MOSUNNY   84  53  34 S16       29.73F
$$

  *****  SOME NATIONAL WEATHER *****

CITY           SKY/WX    TMP DP  RH WIND       PRES   REMARKS
LA GUARDIA NY  MOCLDY    66  43  43 SE9       30.08R
RALEIGH NC     MOSUNNY   74  47  38 W3        30.16R
ATLANTA GA     PTSUNNY   76  46  34 SW7       30.13S
NEW ORLEANS LA MOSUNNY   78  52  40 SE13      30.07S
OKLAHOMA CITY  PTSUNNY   79  55  43 S18G25    29.90S
ALBUQUERQUE NM PTSUNNY   75  31  19 W23G30    29.96F
SALT LAKE CITY PTSUNNY   75  30  19 VRB3      29.83F
LOS ANGELES CA MOSUNNY   62  52  69 W20       29.90F
BOISE ID       SUNNY     79  29  16 NW16      29.81F
SEATTLE WA     SUNNY     69  32  25 W9        29.94F
$$

*** WEATHER ACROSS MANITOBA...SASKATCHEWAN AND ONTARIO ***
                ***ONTARIO***

CITY           SKY/WX    TMP DP  RH WIND       PRES   REMARKS
GERALDTON      CLOUDY    66  32  28 W8G18     29.73R
THUNDER BAY    CLOUDY    73  34  23 W15G22    29.74R
SIOUX LOOKOUT  PTSUNNY   55  41  58 NW10G22   29.81R
TORONTO        MOSUNNY   75  41  29 SW21G29   30.00R
BIG TROUT LK   LGT RAIN  37  34  87 NW8       29.83R
PICKLE LAKE    PTSUNNY   46  39  76 N5        29.79R
DRYDEN         PTSUNNY   57  39  51 NW10G18   29.81R
KENORA         MOSUNNY   55  34  44 NW15G26   29.88R
$$
                *** MANITOBA***

CITY           SKY/WX    TMP DP  RH WIND       PRES   REMARKS
BRANDON        MOSUNNY   59  28  31 NW17G28   29.97R
DAUPHIN        MOSUNNY   59  30  33 N21       29.96R
ISLAND LAKE    CLOUDY    43  32  65 NE6       29.88R
PILOT MOUND    NOT AVBL
THE PAS        PTSUNNY   46  36  66 NW10      29.94R
THOMPSON       PTSUNNY   41  27  56 NW7       29.92R
WINNIPEG       MOSUNNY   61  32  33 NW22      29.93R
LYNN LAKE      PTSUNNY   41  27  56 W7        29.89F
CHURCHILL      CLOUDY    28  23  80 NW10      29.90R WCI  19
GILLAM         CLOUDY    30  25  80 N8        29.92R WCI  23
$$
                ***SASKATCHEWAN***

CITY           SKY/WX    TMP DP  RH WIND       PRES   REMARKS
ESTEVAN        MOSUNNY   59  27  29 NW16G24   30.02S
KINDERSLEY     MOSUNNY   54  27  35 SW14      30.05F
LLOYDMINSTER   PTSUNNY   45  30  57 VRB3      30.04F
PRINCE ALBERT  MOSUNNY   54  27  35 N16G24    30.00S
REGINA         MOSUNNY   55  25  30 W7        30.03S
YORKTON        PTSUNNY   57  27  30 W12G20    29.99S
N. BATTLEFORD  PTSUNNY   54  25  32 W9        30.04S
LA RONGE       PTSUNNY   48  19  32 W21G30    30.00R
SASKATOON      PTSUNNY   57  25  28 NW16      30.03S
SWIFT CURRENT  PTSUNNY   54  23  30 NW15G24   30.04R
$$
NOTE: THESE ARE AUTOMATED STATIONS WITH LIMITED QUALITY CONTROL
      "FAIR" INDICATES FEW OR NO CLOUDS BELOW 12,000 FEET WITH NO
      SIGNIFICANT WEATHER AND/OR OBSTRUCTIONS TO VISIBILITY.
      SKY/WX - SKY CONDITION AND SIGNIFICANT WEATHER.
      TMP - AIR TEMPERATURE.    DP   - DEWPOINT TEMPERATURE.
      RH  - RELATIVE HUMIDITY.  PRES - PRESSURE.
      HX  - HEAT INDEX.         WCI  - WIND CHILL INDEX.
$



USA.gov is the U.S. government's official web portal to all federal, state and local government web resources and services.